CW2935 Weather Reports


time (UTC)temp
F
wind
direction
speed
knots
gust
knots
rain 1hr
in
rain 24hr
in
rain mn
in
humidity
%
barometer
mb
20240518190034 82 228 1.7 9.6 0.00 0.19 0.02 46 1003.7
20240518184538 81 302 5.2 14.8 0.00 0.19 0.02 45 1003.6
20240518183018 82 281 3.5 10.4 0.00 0.19 0.02 45 1003.3
20240518181525 83 337 1.7 7.0 0.00 0.19 0.02 46 1003.0
20240518180017 81 289 1.7 9.6 0.00 0.19 0.02 49 1002.9
20240518174513 81 246 0.9 7.0 0.00 0.19 0.02 51 1002.7
20240518173010 80 287 1.7 10.4 0.00 0.19 0.02 51 1002.6
20240518171505 80 266 1.7 7.8 0.00 0.19 0.02 53 1002.4
20240518170003 80 277 1.7 7.8 0.00 0.19 0.02 56 1002.3
20240518164501 80 298 1.7 6.1 0.00 0.19 0.02 55 1002.3
20240518163118 79 323 0.9 7.8 0.00 0.19 0.02 57 1002.1
20240518161558 79 243 0.9 7.8 0.00 0.19 0.02 56 1001.9
20240518160115 78 283 0.0 7.8 0.00 0.19 0.02 59 1001.7
20240518154556 79 304 1.7 7.8 0.00 0.19 0.02 56 1001.5
20240518153056 78 295 0.9 3.5 0.00 0.19 0.02 60 1001.4
20240518151551 78 304 0.9 5.2 0.00 0.19 0.02 60 1001.3
20240518150045 76 207 0.9 7.0 0.00 0.19 0.02 62 1001.2
20240518144541 74 165 0.9 3.5 0.00 0.19 0.02 66 1001.3
20240518143041 73 1 1.7 6.1 0.00 0.19 0.02 67 1001.2
20240518141536 72 356 1.7 7.8 0.00 0.19 0.02 69 1001.1
20240518140044 71 338 0.9 7.8 0.00 0.19 0.02 72 1001.2
20240518134555 71 150 2.6 8.7 0.00 0.19 0.02 71 1001.1
20240518133037 70 162 0.9 4.3 0.00 0.19 0.02 75 1001.1
20240518131535 68 264 0.9 5.2 0.00 0.19 0.02 75 1001.1
20240518130025 0 0.0 0.0 0.00 0.19 0.02 1001.3
20240518124517 0 0.0 0.0 0.00 0.19 0.02 1001.4
20240518123013 0 0.0 0.0 0.00 0.19 0.02 1001.2
20240518121526 0 0.0 0.0 0.00 0.19 0.02 1001.1
20240518120007 0 0.0 0.0 0.00 0.19 0.02 1001.0
20240518114600 0 0.0 0.0 0.00 0.19 0.02 1000.8
20240518113116 0 0.0 0.0 0.00 0.19 0.02 1000.7
20240518111552 0 0.0 0.0 0.00 0.19 0.02 1000.5
20240518110047 0 0.0 0.0 0.00 0.19 0.02 1000.5
20240518104546 65 74 0.0 4.3 0.00 0.19 0.02 77 1000.3
20240518103043 65 96 0.9 7.0 0.00 0.19 0.02 76 1000.4
20240518101542 66 84 0.9 5.2 0.00 0.19 0.02 75 1000.4
20240518100046 66 153 1.7 6.1 0.00 0.19 0.02 72 1000.0
20240518094540 67 70 1.7 7.0 0.00 0.19 0.02 72 1000.5
20240518093041 67 161 1.7 5.2 0.00 0.19 0.02 71 1000.2
20240518091541 67 129 0.9 6.1 0.00 0.19 0.02 70 1000.2
20240518090048 68 158 1.7 7.8 0.00 0.19 0.02 68 1000.2
20240518084538 68 207 1.7 7.0 0.00 0.19 0.02 67 1000.2
20240518083037 68 197 2.6 12.2 0.00 0.19 0.02 67 1000.1
20240518081535 68 63 0.9 7.0 0.00 0.19 0.02 67 1000.1
20240518080032 67 253 1.7 8.7 0.02 0.19 0.02 70 1000.2
20240518074530 63 86 1.7 7.0 0.02 0.19 0.02 84 1000.2
20240518073029 63 218 0.9 4.3 0.02 0.19 0.02 85 1000.3
20240518071526 65 8 0.0 4.3 0.02 0.19 0.02 80 1000.3
20240518070024 66 152 0.0 4.3 0.00 0.17 0.00 74 1000.2
20240518064523 66 181 1.7 7.8 0.00 0.17 0.00 75 1000.3
20240518063022 66 128 0.9 5.2 0.00 0.17 0.00 76 1000.4
20240518061519 66 202 0.9 10.4 0.00 0.17 0.00 76 1000.3
20240518060021 66 73 0.9 7.8 0.00 0.17 0.00 75 1000.3
20240518054515 66 148 0.9 7.0 0.00 0.17 0.00 74 1000.5
20240518053021 66 174 0.0 6.1 0.00 0.17 0.00 76 1000.6
20240518051512 66 152 1.7 9.6 0.00 0.17 0.00 75 1000.6
20240518050010 66 219 2.6 9.6 0.00 0.17 0.00 74 1000.7
20240518044508 66 165 0.9 8.7 0.00 0.17 0.17 77 1000.7
20240518043007 66 76 1.7 6.1 0.00 0.17 0.17 78 1000.7
20240518041519 66 104 0.9 6.1 0.00 0.17 0.17 77 1000.8
20240518040006 66 103 2.6 7.0 0.00 0.17 0.17 76 1000.7
20240518034505 66 169 0.9 10.4 0.00 0.17 0.17 78 1000.8
20240518033009 66 162 0.9 8.7 0.00 0.17 0.17 79 1000.9
20240518031504 66 172 0.9 7.8 0.00 0.17 0.17 79 1000.9
20240518030003 66 114 1.7 6.1 0.00 0.17 0.17 78 1000.8
20240518024501 66 236 2.6 11.3 0.00 0.17 0.17 78 1000.8
20240518023005 66 187 2.6 12.2 0.00 0.17 0.17 77 1000.8
20240518021502 66 142 1.7 11.3 0.00 0.17 0.17 78 1000.9
20240518020002 67 164 3.5 12.2 0.01 0.17 0.17 76 1001.1
20240518014559 67 269 3.5 10.4 0.01 0.17 0.17 77 1000.7
20240518013108 66 222 4.3 12.2 0.01 0.17 0.17 79 1000.7
20240518011603 66 144 0.9 9.6 0.01 0.17 0.17 81 1000.4
20240518010100 66 120 1.7 13.0 0.00 0.16 0.16 79 1001.7
20240518004603 65 267 0.0 8.7 0.01 0.16 0.16 82 1001.5
20240518003107 65 172 0.9 8.7 0.10 0.16 0.16 84 1000.9
20240518001606 64 127 1.7 5.2 0.13 0.16 0.16 85 1000.3
20240518000102 65 205 1.7 6.1 0.16 0.16 0.16 85 1001.2
20240517234622 64 104 1.7 6.1 0.15 0.15 0.15 83 1000.6
20240517233053 67 58 0.0 7.8 0.06 0.06 0.06 77 1002.0
20240517231553 69 294 0.0 7.0 0.03 0.03 0.03 73 1000.7
20240517230051 74 311 7.0 18.2 0.00 0.00 0.00 56 1000.6
20240517224551 81 143 1.7 8.7 0.00 0.00 0.00 39 999.8
20240517223051 83 239 0.9 7.0 0.00 0.00 0.00 38 999.1
20240517221549 85 255 2.6 8.7 0.00 0.00 0.00 36 999.3
20240517220049 85 187 3.5 7.8 0.00 0.00 0.00 36 999.4
20240517214545 85 255 2.6 6.1 0.00 0.00 0.00 41 999.7
20240517213042 83 215 1.7 7.8 0.00 0.00 0.00 41 999.8
20240517211540 85 259 3.5 9.6 0.00 0.00 0.00 38 1000.1
20240517210039 87 207 1.7 6.1 0.00 0.00 0.00 37 999.9
20240517204538 85 155 3.5 10.4 0.00 0.00 0.00 38 1000.0
20240517203036 87 147 2.6 7.8 0.00 0.00 0.00 37 1000.1
20240517201542 87 275 0.9 7.8 0.00 0.00 0.00 38 1000.4
20240517200034 86 195 3.5 12.2 0.00 0.00 0.00 39 1000.6
20240517194532 86 271 1.7 10.4 0.00 0.00 0.00 38 1000.7
20240517193030 86 197 1.7 7.0 0.00 0.00 0.00 38 1000.9
20240517191528 85 245 0.0 9.6 0.00 0.00 0.00 42 1000.9